Hickory, NC

11:27 PM EDT on July 22, 2017 (GMT -0400)
Hickory Regional

Weather History for KHKY - April, 2014

Change the Weather History Date:

Wednesday, April 30, 2014

  Actual Average Record
Temperature  
Mean Temperature 62 °F -  
Max Temperature 72 °F 74 °F 88 °F (1987)
Min Temperature 53 °F 51 °F 35 °F (2008)
Degree Days  
Heating Degree Days 2    
Growing Degree Days 12 (Base 50)    
Moisture  
Dew Point 56 °F    
Average Humidity 89    
Maximum Humidity 100    
Minimum Humidity 63    
Precipitation  
Precipitation 0.02 in - - ()
Sea Level Pressure  
Sea Level Pressure 29.91 in    
Wind  
Wind Speed 3 mph (East)    
Max Wind Speed 12 mph    
Max Gust Speed 21 mph    
Visibility 3 miles    
Events Fog    
Averages and records for this station are not official NWS values.
T = Trace of Precipitation, MM = Missing Value Source: NWS Daily Summary

Daily Weather History Graph

Daily Weather History Graph

Search for Another Location

Airport or City:

Trip Planner

Search our weather history database for the weather conditions in past years. The results will help you decide how hot, cold, wet, or windy it might be!

Date:

Astronomy

Apr. 30, 2014 Rise Set
Actual Time 6:34 AM EDT 8:11 PM EDT
Civil Twilight 6:07 AM EDT 8:38 PM EDT
Nautical Twilight 5:34 AM EDT 9:11 PM EDT
Astronomical Twilight 4:59 AM EDT 9:46 PM EDT
Moon 7:35 AM EDT (4/30) 9:47 PM EDT (4/30)
Length of Visible Light 14h 31m
Length of Day
13h 36m
New Moon, 2% of the Moon is Illuminated
Apr 30
New Moon
May 6
First Quarter
May 14
Full
May 21
Last Quarter
May 28
New

Hourly Weather History & Observations

Time (EDT) Temp. Dew Point Humidity Pressure Visibility Wind Dir Wind Speed Gust Speed Precip Events Conditions
12:40 AM 53.6 °F 53.6 °F 100% 30.03 in 1.0 mi NNE 4.6 mph - 0.01 in   Mist
12:53 AM 54.0 °F 53.1 °F 97% 29.99 in 0.8 mi NNE 3.5 mph - 0.01 in   Mist
1:53 AM 54.0 °F 53.1 °F 97% 29.99 in 0.5 mi Calm Calm - N/A Fog Fog
2:53 AM 54.0 °F 53.1 °F 97% 29.96 in 0.5 mi North 3.5 mph - N/A Fog Fog
3:53 AM 54.0 °F 53.1 °F 97% 29.93 in 0.5 mi Calm Calm - N/A Fog Fog
4:14 AM 53.6 °F 51.8 °F 94% 29.97 in 1.0 mi Calm Calm - N/A   Mist
4:29 AM 53.6 °F 51.8 °F 94% 29.96 in 0.8 mi ENE 3.5 mph - N/A   Mist
4:53 AM 54.0 °F 53.1 °F 97% 29.91 in 0.5 mi ENE 6.9 mph - N/A Fog Fog
5:53 AM 54.0 °F 53.1 °F 97% 29.92 in 0.5 mi ENE 3.5 mph - 0.01 in Fog Fog
6:41 AM 53.6 °F 53.6 °F 100% 29.96 in 1.0 mi Calm Calm - N/A   Mist
6:53 AM 54.0 °F 53.1 °F 97% 29.93 in 1.0 mi Calm Calm - N/A   Mist
7:01 AM 53.6 °F 53.6 °F 100% 29.97 in 0.5 mi Calm Calm - N/A Fog Fog
7:09 AM 53.6 °F 53.6 °F 100% 29.96 in 0.2 mi Calm Calm - N/A Fog Fog
7:53 AM 54.0 °F 53.1 °F 97% 29.91 in 0.2 mi ENE 4.6 mph - N/A Fog Fog
8:44 AM 53.6 °F 53.6 °F 100% 29.96 in 0.2 mi NNW 3.5 mph - N/A Fog Fog
8:53 AM 54.0 °F 53.1 °F 97% 29.93 in 0.2 mi WNW 3.5 mph - N/A Fog Fog
9:03 AM 53.6 °F 53.6 °F 100% 29.97 in 0.2 mi Calm Calm - N/A Fog Fog
9:53 AM 55.0 °F 54.0 °F 96% 29.93 in 0.2 mi Calm Calm - N/A Fog Fog
11:29 AM 57.2 °F 57.2 °F 100% 29.96 in 0.8 mi Calm Calm - N/A   Mist
11:40 AM 57.2 °F 57.2 °F 100% 29.96 in 1.5 mi Calm Calm - N/A   Overcast
11:53 AM 59.0 °F 57.9 °F 96% 29.91 in 1.0 mi North 3.5 mph - N/A   Overcast
12:00 PM 59.0 °F 57.2 °F 94% 29.94 in 0.5 mi North 3.5 mph - N/A Fog Fog
12:23 PM 60.8 °F 57.2 °F 88% 29.93 in 1.0 mi Calm Calm - N/A   Overcast
12:41 PM 60.8 °F 57.2 °F 88% 29.93 in 0.8 mi NNE 3.5 mph - N/A   Mist
12:53 PM 60.1 °F 59.0 °F 96% 29.88 in 0.8 mi Calm Calm - N/A   Mist
1:04 PM 60.8 °F 59.0 °F 94% 29.92 in 1.2 mi Calm Calm - N/A   Overcast
1:19 PM 60.8 °F 59.0 °F 94% 29.92 in 2.5 mi Calm Calm - N/A   Overcast
1:27 PM 60.8 °F 59.0 °F 94% 29.92 in 4.0 mi Calm Calm - N/A   Overcast
1:53 PM 63.0 °F 60.1 °F 90% 29.86 in 5.0 mi Calm Calm - N/A   Overcast
2:04 PM 64.4 °F 60.8 °F 88% 29.90 in 6.0 mi Calm Calm - N/A   Overcast
2:26 PM 66.2 °F 62.6 °F 88% 29.89 in 7.0 mi Calm Calm - N/A   Scattered Clouds
2:53 PM 69.1 °F 63.0 °F 81% 29.85 in 9.0 mi Calm Calm - N/A   Mostly Cloudy
3:53 PM 72.0 °F 60.1 °F 66% 29.83 in 10.0 mi SW 9.2 mph 20.7 mph N/A   Mostly Cloudy
4:53 PM 72.0 °F 59.0 °F 64% 29.84 in 10.0 mi SSW 8.1 mph 18.4 mph N/A   Overcast
5:53 PM 72.0 °F 60.1 °F 66% 29.83 in 10.0 mi South 11.5 mph 18.4 mph N/A   Mostly Cloudy
6:53 PM 72.0 °F 59.0 °F 64% 29.82 in 10.0 mi South 9.2 mph - N/A   Overcast
7:53 PM 71.1 °F 57.9 °F 63% 29.84 in 10.0 mi SSW 9.2 mph 18.4 mph N/A   Overcast
8:53 PM 69.1 °F 59.0 °F 70% 29.85 in 10.0 mi South 5.8 mph - N/A   Overcast
9:53 PM 68.0 °F 57.9 °F 70% 29.85 in 10.0 mi South 5.8 mph - 0.00 in   Mostly Cloudy
10:53 PM 66.0 °F 59.0 °F 78% 29.85 in 10.0 mi South 9.2 mph - N/A   Clear
11:53 PM 66.9 °F 59.0 °F 76% 29.84 in 10.0 mi South 6.9 mph 17.3 mph N/A   Clear